Preview of NWS' New Version of Forecast
This preview is not operational and should not be used for support decisions.

Regional Weather Roundup (RWR)

Issued by National Weather Service (NWS)

                            
000
ASCA42 TJSJ 211810
RWRPR 
PUERTO RICO/U.S. VIRGIN ISLANDS HOURLY WEATHER ROUNDUP
NATIONAL WEATHER SERVICE SAN JUAN PR
200 PM AST SUN JUL 21 2019

PRZ001>002-007>008-010-211900-
PUERTO RICO
  
CITY           SKY/WX    TMP DP  RH WIND       PRES   REMARKS
SAN JUAN LMM   MOSUNNY   90  75  62 E20       30.00F HX 100           
AGUADILLA      PTSUNNY   86  75  70 E12       30.02S HX  95           
CEIBA          SUNNY     90  75  62 NE12      30.02F HX 100           
$$

VIZ001>002-211900-
U.S. VIRGIN ISLANDS
  
CITY           SKY/WX    TMP DP  RH WIND       PRES   REMARKS
CHARLOTTE AMA  MOSUNNY   84  73  70 SE10      30.00F HX  91           
CHRISTIANSTED  MOSUNNY   88  72  58 SE16      30.01F HX  94           
$$

HOURLY WEATHER ROUNDUP FOR THE NEWS MEDIA
  
CITY           SKY/WX    TMP DP  RH WIND       PRES   REMARKS
ORLANDO        PTSUNNY   91  70  49 SE8       30.05F HX  96           
NEW YORK       PTSUNNY   94  78  60 SW16      29.79S HX 110           
NEWARK         PTSUNNY   97  74  47 W14       29.78S HX 108           
CHICAGO        CLOUDY    75  68  78 N13       29.96F                  
HARTFORD       FAIR      93  74  53 W12G18    29.70F HX 103           
BOSTON         FAIR      95  70  44 W22       29.67F HX 101           
DALLAS         PTSUNNY   94  64  37 SW10      29.95F HX  95           
PHILADELPHIA   FAIR      97  72  44 SW14      29.82F HX 105           
LOS ANGELES    MOSUNNY   70  60  70 W7        29.95R                  
WASHINGTON DC  PTSUNNY   96  71  44 NW10      29.89F HX 103